[[{"header":{"parameterUnit":"m.s-1","parameterCategory":1,"la1":30.2991,"la2":30.254,"lo1":-89.0895,"lo2":-89.0444,"dy":0.0017,"dx":0.0017,"nx":28,"ny":28,"refTime":"2025-03-31T21:00:00:Z","depth":0,"parameterNumber":2,"parameterNumberName":"U-component_of_WINDS"},"data":[0,0,0,0,0,0,0,0,0,0,0,0,0,0,0,0,0,0,0,0,0,0,0,0,0,0,0,0,0,0,0,0,0,0,0,0,0,0,0,0,0,0,0,0,0,0,0,0,0,0,0,0,0,0,0,0,0,0,1.6325,1.6326,0,1.6389,1.639,1.6391,1.636,1.6358,1.6357,1.6355,1.6422,1.6426,1.6429,0,0,0,0,0,0,0,0,0,0,0,0,0,1.6177,1.6179,1.6325,1.6326,1.6326,1.6389,1.639,1.6391,1.636,1.6358,1.6356,1.6354,1.6421,1.6425,1.6429,0,0,0,0,0,0,0,0,0,0,0,0,0,1.6241,1.618,1.6325,1.6319,1.6319,1.6389,1.639,1.6391,1.6361,1.6358,1.6356,1.6354,1.642,1.6425,1.643,1.651,0,0,1.6445,1.6447,0,0,0,0,0,0,0,0,1.6237,1.6247,1.6319,1.6319,1.6319,1.6364,1.6362,1.6431,1.6361,1.6345,1.6355,1.6352,1.6405,1.6411,1.6429,1.6513,1.6516,1.6445,1.6448,1.645,1.6452,0,0,0,0,0,0,0,1.6233,1.6244,1.635,1.632,1.632,1.6313,1.632,1.6375,1.6388,1.6346,1.6344,1.6352,1.6405,1.6424,1.643,1.6517,1.6445,1.645,1.6453,1.6455,1.6671,1.6674,0,0,0,0,0,0,1.6229,1.624,1.6348,1.6352,1.6271,1.6318,1.6325,1.6352,1.6387,1.639,1.6354,1.635,1.6417,1.6424,1.6432,1.6528,1.645,1.6455,1.6458,1.6669,1.6672,1.6675,0,0,0,0,0,0,1.6225,1.6238,1.6346,1.6296,1.6309,1.6323,1.6354,1.6355,1.6374,1.6393,1.6396,1.6371,1.6415,1.6425,1.6491,1.653,1.6457,1.6462,1.6665,1.667,1.6673,1.6722,0,0,0,0,0,0,1.6221,1.6238,1.6268,1.6297,1.6312,1.6403,1.6356,1.6358,1.6383,1.6378,1.641,1.6413,1.6414,1.6484,1.6496,1.6536,1.6466,1.6662,1.6667,1.6672,1.6716,1.6727,1.6736,0,0,0,0,0,1.6216,1.6279,1.6269,1.6283,1.6349,1.6405,1.6414,1.6413,1.6386,1.6416,1.6429,1.6412,1.6524,1.6491,1.6504,1.6546,1.6659,1.6666,1.6672,1.6712,1.6725,1.6735,0,0,0,0,0,0,1.6254,1.6282,1.6272,1.6346,1.6373,1.64,1.6438,1.6427,1.6462,1.6457,1.6455,1.6463,1.6531,1.6545,1.6507,1.6626,1.6588,1.6597,1.6614,1.6626,1.6635,1.663,1.647,0,0,0,0,0,1.6271,1.6313,1.6336,1.6399,1.6413,1.6424,1.6448,1.6445,1.6474,1.6485,1.6503,1.6531,1.6573,1.6601,1.664,1.6719,1.6726,1.6755,1.6764,1.6772,1.678,1.6823,1.6836,1.6695,1.6695,1.6695,0,0,1.6306,1.6327,1.6354,1.6407,1.6428,1.6472,1.6434,1.6482,1.6515,1.6493,1.6555,1.657,1.6602,1.6674,1.6707,1.6688,1.6821,1.678,1.6786,1.679,1.6831,1.6844,1.6856,1.67,1.6699,1.6698,0,0,1.6393,1.6413,1.6467,1.649,1.6522,1.6529,1.6542,1.6571,1.6579,1.6642,1.6627,1.6667,1.6739,1.6762,1.6783,1.6881,1.6867,1.6894,1.6944,1.6986,1.6997,1.7007,1.7041,1.7054,1.6902,1.6902,1.6902,0,1.6432,1.6498,1.6497,1.6547,1.6571,1.6554,1.6609,1.6631,1.6675,1.6692,1.6671,1.6761,1.6781,1.6859,1.6883,1.6901,1.6917,1.689,1.6996,1.7005,1.7015,1.7047,1.706,1.6905,1.6905,1.6905,1.6904,0,1.6545,1.6591,1.6632,1.6674,1.6703,1.6756,1.6763,1.6793,1.6789,1.6798,1.6863,1.6887,1.6931,1.695,1.6946,1.7028,1.7016,1.6995,1.6956,1.7031,1.7062,1.7074,1.691,1.6909,1.6908,1.6907,0,0,1.6655,1.6698,1.6713,1.6732,1.6767,1.6803,1.6856,1.6899,1.6924,1.6956,1.7,1.7062,1.7044,1.7068,1.7067,1.7104,1.718,1.7079,1.708,1.7097,1.7272,1.7286,1.7301,1.7171,1.7174,1.7176,1.7269,0,1.6744,1.6835,1.6836,1.692,1.6963,1.6948,1.6994,1.7021,1.7031,1.707,1.7082,1.7126,1.7098,1.7113,1.7149,1.7163,1.7215,1.7157,1.7212,1.7214,1.7203,1.7317,1.7332,1.7418,1.7281,1.7283,1.7284,0,1.6858,1.6893,1.6982,1.7012,1.703,1.7071,1.7111,1.7148,1.7179,1.7184,1.7212,1.7206,1.726,1.7221,1.7296,1.7256,1.728,1.729,1.7294,1.7297,1.7253,1.7323,1.7446,1.7458,1.7304,1.7302,1.7301,0,1.6929,1.6998,1.706,1.7077,1.7114,1.7143,1.716,1.7189,1.7215,1.7251,1.7268,1.731,1.7332,1.7365,1.7371,1.7342,1.7446,1.7407,1.7452,1.7452,1.7473,1.7472,1.7601,1.7491,1.749,1.749,1.749,0,1.7026,1.708,1.7092,1.713,1.7191,1.7193,1.7253,1.7268,1.7294,1.7335,1.7325,1.7364,1.7369,1.741,1.7415,1.7476,1.7487,1.7493,1.7493,1.7493,1.7492,1.7507,1.75,1.7494,1.7493,1.7492,1.7492,0,1.7114,1.7124,1.719,1.722,1.7229,1.7273,1.7299,1.7335,1.7346,1.7398,1.741,1.7427,1.7474,1.7483,1.7539,1.7543,1.7616,1.7611,1.7605,1.7604,1.7648,1.7643,1.779,1.7809,1.7687,1.7689,1.769,0,1.7175,1.7216,1.7251,1.7278,1.7296,1.7339,1.7366,1.7371,1.7399,1.7439,1.7471,1.7517,1.7554,1.763,1.7648,1.7691,1.7686,1.7735,1.7692,1.7691,1.7686,1.7683,1.7687,1.7742,1.7743,1.7744,1.7745,0,1.7281,1.7285,1.7324,1.7365,1.7398,1.7431,1.7462,1.7485,1.7493,1.7526,1.7575,1.7603,1.7661,1.7707,1.775,1.7768,1.7759,1.7759,1.7771,1.777,1.7765,1.7768,1.7626,1.7755,1.7754,1.7753,1.7753,1.7752,1.7356,1.7393,1.7423,1.7467,1.7492,1.7522,1.7557,1.7573,1.7613,1.766,1.7661,1.7714,1.7745,1.7802,1.7823,1.7865,1.785,1.7868,1.7872,1.7876,1.788,1.776,1.7873,1.7873,1.7873,1.7873,1.7872,0,1.7461,1.7481,1.7522,1.7566,1.7601,1.759,1.7624,1.7654,1.7701,1.7731,1.7768,1.7824,1.7869,1.7891,1.7936,1.7965,1.7962,1.7977,1.7974,1.7978,1.7892,1.7876,1.7979,1.7979,1.7979,1.7978,1.7978,1.7978,1.752,1.7581,1.7588,1.7662,1.7681,1.7732,1.7753,1.7781,1.7805,1.7868,1.7905,1.7919,1.7946,1.7993,1.8035,1.804,1.8057,1.8073,1.8077,1.7995,1.7984,1.7974,1.7959,1.8077,1.8077,1.8159,1.816,1.8161]},{"header":{"parameterUnit":"m.s-1","parameterCategory":1,"la1":30.2991,"la2":30.254,"lo1":-89.0895,"lo2":-89.0444,"dy":0.0017,"dx":0.0017,"nx":28,"ny":28,"refTime":"2025-03-31T21:00:00:Z","depth":0,"parameterNumber":3,"parameterNumberName":"V-component_of_WINDS"},"data":[0,0,0,0,0,0,0,0,0,0,0,0,0,0,0,0,0,0,0,0,0,0,0,0,0,0,0,0,0,0,0,0,0,0,0,0,0,0,0,0,0,0,0,0,0,0,0,0,0,0,0,0,0,0,0,0,0,0,0.5819,0.5819,0,0.5827,0.5827,0.5827,0.5755,0.5753,0.5751,0.5749,0.5762,0.5764,0.5767,0,0,0,0,0,0,0,0,0,0,0,0,0,0.5748,0.575,0.5819,0.5819,0.582,0.5826,0.5827,0.5827,0.5756,0.5753,0.5751,0.5748,0.5761,0.5764,0.5767,0,0,0,0,0,0,0,0,0,0,0,0,0,0.577,0.575,0.5819,0.5785,0.5782,0.5826,0.5827,0.5827,0.5756,0.5753,0.575,0.5747,0.5761,0.5764,0.5767,0.5847,0,0,0.5777,0.5779,0,0,0,0,0,0,0,0,0.5768,0.5772,0.579,0.5787,0.5784,0.5787,0.5806,0.5834,0.5757,0.5766,0.5749,0.5746,0.5773,0.5775,0.5783,0.5848,0.5848,0.5777,0.5779,0.5781,0.5782,0,0,0,0,0,0,0,0.5767,0.5772,0.5822,0.579,0.5787,0.577,0.577,0.5811,0.5786,0.5765,0.576,0.5761,0.5771,0.578,0.5783,0.5848,0.5777,0.578,0.5782,0.5784,0.5977,0.598,0,0,0,0,0,0,0.577,0.5771,0.5822,0.5823,0.5768,0.5774,0.5774,0.5789,0.5786,0.5782,0.5764,0.5758,0.5776,0.5779,0.5783,0.5876,0.5781,0.5784,0.5786,0.5974,0.5978,0.5981,0,0,0,0,0,0,0.5768,0.5775,0.5822,0.5795,0.58,0.5778,0.5796,0.5791,0.58,0.5785,0.5781,0.5778,0.5774,0.5779,0.5831,0.5875,0.5785,0.5788,0.597,0.5975,0.598,0.6062,0,0,0,0,0,0,0.5767,0.5775,0.5804,0.5796,0.5802,0.5869,0.5799,0.5793,0.5805,0.5797,0.5797,0.5794,0.5772,0.5826,0.5834,0.5878,0.5791,0.5966,0.5973,0.5978,0.6055,0.6069,0.6081,0,0,0,0,0,0.5764,0.5829,0.5806,0.5813,0.5838,0.5871,0.5874,0.5847,0.5809,0.5839,0.5829,0.5794,0.5869,0.5832,0.5841,0.5886,0.5963,0.5971,0.5978,0.6049,0.6066,0.608,0,0,0,0,0,0,0.5844,0.5827,0.5802,0.5865,0.587,0.5859,0.5896,0.5865,0.5882,0.5875,0.5841,0.5842,0.59,0.5898,0.5858,0.5963,0.591,0.5919,0.5961,0.5977,0.599,0.5989,0.5794,0,0,0,0,0,0.5869,0.5896,0.588,0.5938,0.5941,0.5918,0.5932,0.591,0.5914,0.5916,0.591,0.5917,0.5942,0.596,0.5982,0.6054,0.6053,0.609,0.6102,0.6113,0.6121,0.6159,0.6175,0.6005,0.6005,0.6005,0,0,0.5921,0.5915,0.5935,0.5954,0.5955,0.5985,0.5921,0.5955,0.5977,0.5922,0.597,0.5966,0.5972,0.6034,0.6062,0.6035,0.6168,0.6122,0.613,0.6133,0.6168,0.6184,0.6198,0.601,0.6009,0.6008,0,0,0.6031,0.6029,0.6076,0.6078,0.6079,0.6063,0.6075,0.6068,0.6062,0.611,0.6068,0.6095,0.6139,0.6144,0.6153,0.6263,0.6231,0.6271,0.6338,0.6375,0.6388,0.64,0.6439,0.6453,0.628,0.628,0.628,0,0.6096,0.6138,0.6105,0.6141,0.6151,0.61,0.6147,0.6151,0.6161,0.617,0.6139,0.6192,0.6192,0.6254,0.6281,0.629,0.6302,0.6271,0.6389,0.64,0.6411,0.6447,0.6462,0.6285,0.6284,0.6284,0.6283,0,0.6217,0.6247,0.6285,0.6293,0.6307,0.635,0.6323,0.6342,0.6318,0.6306,0.6355,0.6353,0.6373,0.6386,0.6365,0.6446,0.6429,0.6394,0.634,0.6432,0.6466,0.648,0.6291,0.629,0.6288,0.6287,0,0,0.6379,0.6366,0.6381,0.6384,0.6381,0.6404,0.6444,0.6462,0.6478,0.6486,0.6519,0.6556,0.6524,0.6533,0.6512,0.6544,0.6631,0.6505,0.6505,0.6528,0.6719,0.6746,0.6763,0.6609,0.6612,0.6614,0.6719,0,0.6486,0.6552,0.6522,0.6592,0.6619,0.657,0.6604,0.6607,0.6596,0.6619,0.6607,0.6634,0.6589,0.6594,0.6624,0.6614,0.6669,0.6606,0.6641,0.6642,0.6641,0.678,0.6809,0.6908,0.6732,0.6734,0.6736,0,0.6619,0.663,0.6702,0.6693,0.6703,0.6735,0.6748,0.677,0.6772,0.6761,0.6771,0.6742,0.6781,0.6727,0.6781,0.6739,0.6752,0.6749,0.6752,0.6755,0.6695,0.6787,0.6939,0.6954,0.6757,0.6755,0.6753,0,0.673,0.6763,0.6809,0.6813,0.6804,0.6827,0.6825,0.6823,0.6836,0.6848,0.6855,0.6873,0.6883,0.6897,0.6874,0.6837,0.6932,0.6876,0.6925,0.6926,0.6948,0.6947,0.7104,0.6956,0.6956,0.6955,0.6955,0,0.6852,0.6898,0.6859,0.6888,0.6937,0.6903,0.6954,0.6946,0.6945,0.6972,0.6932,0.6959,0.6925,0.6949,0.6931,0.6979,0.6984,0.6978,0.6972,0.6981,0.6982,0.699,0.6982,0.6959,0.6958,0.6958,0.6957,0,0.6984,0.696,0.7007,0.6994,0.6991,0.7029,0.7017,0.7044,0.7029,0.7065,0.7071,0.7049,0.7075,0.7052,0.7078,0.7066,0.7129,0.7114,0.7128,0.7124,0.7174,0.717,0.7342,0.7363,0.7201,0.7202,0.7204,0,0.7064,0.7098,0.7087,0.7101,0.71,0.7124,0.7136,0.7103,0.7117,0.7121,0.7147,0.7169,0.7185,0.7228,0.7216,0.7235,0.722,0.7279,0.7223,0.7231,0.7221,0.722,0.7223,0.7291,0.7293,0.7295,0.7296,0,0.7208,0.7194,0.7211,0.7224,0.7238,0.7247,0.7253,0.7268,0.7234,0.7252,0.7276,0.7288,0.7313,0.7336,0.735,0.7349,0.7318,0.7313,0.7326,0.7336,0.7342,0.7339,0.7159,0.731,0.7308,0.7307,0.7307,0.7306,0.7317,0.7344,0.734,0.736,0.7361,0.7367,0.7391,0.7378,0.7397,0.7413,0.7393,0.7424,0.7424,0.744,0.7442,0.7466,0.7442,0.746,0.7465,0.747,0.7477,0.7338,0.7469,0.7469,0.7468,0.7468,0.7468,0,0.7459,0.7453,0.7472,0.748,0.7496,0.7462,0.7467,0.7483,0.751,0.7512,0.7527,0.7555,0.7576,0.7564,0.7583,0.7604,0.759,0.7611,0.7609,0.7609,0.7498,0.7485,0.7621,0.7621,0.7621,0.7621,0.7621,0.7621,0.7535,0.7578,0.7564,0.7607,0.7602,0.7629,0.7635,0.764,0.7642,0.7674,0.769,0.7682,0.7678,0.7696,0.7714,0.771,0.7719,0.7744,0.7736,0.7632,0.7617,0.7603,0.7591,0.7746,0.7747,0.7844,0.7845,0.7846]}]]